www.pogodaiklimat.ru

Погода и климат >> Архив погоды >> Канада >> Нунавут >> Джойа Хейвен


ПОГОДА в Джойа Хейвен

  • Прогноз погоды в Джойа Хейвен
  • Монитор погоды в Джойа Хейвен

АРХИВ ПОГОДЫ в Джойа Хейвен

Время (UTC), дата Ветер
(напр.,м/с)
 
Видим.   Явления Облачность Т
(С)
Тd
(С)
f
(%)
Тe
(С)
Тes
(С)
Комфортность P
(гПа)
Po
(гПа)
Тmin
(С)
Tmax
(С)
R
(мм)
R24
(мм)
S
(см)
06 10.07 В 4 н/о н/о +4.2 +4.2 100 -1 -1 1006.9 1001.6
09 10.07 ЮВ 5 н/о н/о +4.3 +4.3 100 -1 -1 1005.7 1000.5 0.3
12 10.07 ЮВ 5 н/о н/о +5.0 +5.0 100 0 0 1004.4 999.2 +3.6 0.3
15 10.07 В 4 н/о н/о +4.8 +4.8 100 +1 +1 1003.2 998.0
21 10.07 СВ 2 н/о н/о +9.0 +7.8 92 +7 +7 1000.3 995.1 0.7
00 11.07 СВ 2 н/о {осадки} н/о +7.6 +7.6 100 +5 +5 999.2 994.0 3
03 11.07 ЮЗ 3 н/о н/о +5.0 +5.0 100 +2 +2 997.6 992.4 3
06 11.07 ЮЗ 3 н/о н/о +5.0 +5.0 100 +2 +2 990.8
09 11.07 З 5 н/о н/о +4.4 +4.4 100 -1 -1 994.7 989.5
12 11.07 З 6 н/о н/о +5.9 +5.7 99 +1 +1 994.1 988.9
18 11.07 З 6 н/о н/о +7.3 +6.7 96 +3 +3 993.5 988.3
21 11.07 З 5 н/о н/о +6.9 +6.7 99 +3 +3 994.0 988.8
00 12.07 ЮЗ 5 н/о н/о +5.3 +5.3 100 0 0 993.7 988.5
03 12.07 ЮЗ 7 н/о н/о +4.6 +4.6 100 -1 -1 993.3 988.1
06 12.07 ЮЗ 5 н/о н/о +3.3 +3.3 100 -2 -2 992.8 987.6
09 12.07 ЮЗ 6 н/о н/о +3.4 +3.4 100 -2 -2 992.4 987.2
12 12.07 ЮЗ 4 н/о н/о +3.8 +3.8 100 -1 -1 992.5 987.3
15 12.07 ЮЗ 3 н/о н/о +4.6 +4.6 100 +1 +1 993.0 987.8
18 12.07 ЮЗ 4 н/о н/о +5.0 +4.9 99 +1 +1 993.2 988.0 +5.9
21 12.07 ЮЗ 2 н/о н/о +6.3 +5.8 97 +4 +4 993.8 988.6
00 13.07 З 4 н/о н/о +8.0 +6.2 88 +5 +5 994.2 989.0 +2.6 +9.4
03 13.07 ЮЗ 2 н/о н/о +5.0 +4.5 97 +2 +2 994.6 989.4
06 13.07 З 2 н/о н/о +4.7 +4.3 97 +2 +2 994.8 989.6 +2.6 +9.4
09 13.07 ЮЗ 2 н/о н/о +3.8 +3.8 100 +1 +1 994.7 989.5
12 13.07 Ю 1 н/о {осадки} н/о +4.5 +4.5 100 +3 +3 995.1 989.9 +3.1 +9.4 0.2
15 13.07 З 2 н/о н/о +6.2 +6.2 100 +4 +4 995.5 990.3 0.2
18 13.07 ЮЗ 3 н/о н/о +7.2 +5.3 88 +5 +5 995.8 990.6 +3.1 +8.3 0.2
21 13.07 ЮЗ 3 н/о н/о +6.6 +4.6 87 +3 +3 996.3 991.1
00 14.07 ЮЗ 4 н/о н/о +7.1 +4.6 84 +4 +4 996.7 991.5
03 14.07 ЮЗ 3 н/о н/о +5.2 +5.0 99 +1 +1 997.5 992.3
06 14.07 З 1 н/о {осадки} н/о +4.6 +4.6 100 +3 +3 998.1 992.9 0.3
09 14.07 СЗ 3 н/о н/о +6.5 +6.5 100 +3 +3 998.6 993.4 0.7
12 14.07 З 4 н/о н/о +6.8 +6.8 100 +3 +3 999.3 994.1
15 14.07 З 6 н/о н/о +7.9 +7.5 97 +4 +4 1000.2 995.0
18 14.07 СЗ 4 н/о н/о +9.3 +7.7 90 +6 +6 1001.0 995.8
21 14.07 СЗ 5 н/о н/о +12.0 +8.2 78 +10 +10 1002.0 996.8
00 15.07 СЗ 5 н/о н/о +11.5 +8.0 79 +9 +9 1003.1 997.9 +12.9
03 15.07 СВ 1 н/о н/о +9.8 +8.0 89 +10 +10 1003.7 998.5
06 15.07 штиль 0 н/о н/о +8.7 +7.7 93 +8 +8 1004.2 999.0
09 15.07 З 2 н/о н/о +6.0 +5.7 98 +3 +3 1004.4 999.2
12 15.07 ЮЗ 2 н/о н/о +5.0 +4.5 97 +2 +2 1004.3 999.1 +4.8
15 15.07 Ю 4 н/о н/о +6.3 +5.7 96 +3 +3 1003.9 998.7
18 15.07 ЮВ 4 н/о н/о +7.5 +6.4 93 +4 +4 1003.4 998.2 +4.8 +8.7
21 15.07 ЮВ 4 н/о н/о +8.0 +6.4 90 +5 +5 1003.0 997.8
00 16.07 ЮВ 3 н/о н/о +7.9 +7.3 96 +5 +5 1002.8 997.6 +4.8 +8.5
03 16.07 З 1 н/о н/о +8.5 +6.9 90 +9 +9 1002.9 997.7
06 16.07 СЗ 2 н/о н/о +6.7 +6.3 97 +5 +5 1002.7 997.5 +4.8 +9.2
09 16.07 СЗ 2 н/о н/о +6.0 +6.0 100 +3 +3 1002.6 997.4
12 16.07 З 2 н/о н/о +5.5 +5.5 100 +3 +3 1002.4 997.2 +4.8 +9.2
15 16.07 ЮЗ 4 н/о н/о +5.2 +5.2 100 +1 +1 1002.1 996.9
18 16.07 Ю 5 н/о н/о +6.3 +4.9 91 +2 +2 1000.4 995.2 +4.6 +7.1
00 17.07 ЮВ 8 н/о н/о +5.9 +5.9 100 0 0 996.2 991.0

 

Местоположение метеостанции Джойа Хейвен (Нунавут, Канада): широта 68.63 долгота -95.85 высота над уровнем моря 43 м.

В архиве по умолчанию представлена погода в Джойа Хейвен за последнюю неделю. Архивные данные за месяц целиком и за предыдущие месяцы, начиная с января 2011 года, Вы можете получить, выбрав интересующий диапазон дат из раскрывающегося списка и нажав кнопку "Ввод!".


*Определитесь, кто Вы:
робот инопланетянин человек

Внимание! Время в таблицах - всемирное. Для получения местного времени необходимо прибавить поправку, которая равна -6 ч.

Смотрите также архив погоды в соседних городах и на ближайших метеорологических станциях:

Погода в Шеперд-Бее (Нунавут, Канада) (100 км)
Погода в Талойоаке (Нунавут, Канада) (136 км)
Погода на Острове Хат (Нунавут, Канада) (173 км)
Погода в Кугааруке (Нунавут, Канада) (246 км)
Погода в Кам Фор (Нунавут, Канада) (251 км)
Погода в Глеичене (Альберта, Канада) (285 км)
Погода в Кеймбридж-Бее (Нунавут, Канада) (374 км)
Погода в Кембридж Бэй (Нунавут, Канада) (374 км)
Погода в Вейджер Бэй (Нунавут, Канада) (412 км)
Погода в Бейкер Лейк (Нунавут, Канада) (479 км)

Пояснения к столбцам:

Ветер - указаны скорость ветра в м/с - средняя за 10 мин, порывы в срок и между сроками (в фигурных скобках) и направление, откуда дует ветер: С - северный, СВ - северо-восточный, В - восточный, ЮВ - юго-восточный, Ю - южный, ЮЗ - юго-западный, З - западный, СЗ - северо-западный.
Видимость - горизонтальная дальность видимости в метрах или километрах. При видимости от 1 до 10 км при отсутствии осадков обычно наблюдается дымка, при ухудшении видимости до 1 км и менее - туман. В сухую погоду видимость может ухудшаться дымом, пылью или мглою.
Явления - указаны атмосферные явления, наблюдавшиеся в срок или в последний час перед сроком; фигурными скобками обозначены явления, наблюдавшиеся между сроками (за 1-3 часа до срока); квадратными скобками обозначены град или гололедные отложения с указанием их диаметра в мм.
Облачность - указаны через наклонную черту общая и нижняя облачность в баллах и высота нижней границы облаков в метрах; квадратными скобками обозначены формы облаков: Ci - перистые, Cs - перисто-слоистые, Cc - перисто-кучевые, Ac - высококучевые, As - высокослоистые, Sc - слоисто-кучевые, Ns - слоисто-дождевые, Cu - кучевые, Cb - кучево-дождевые. Подробнее классификацию облаков см. в Атласе облаков (PDF).
T - Температура воздуха - температура, измеренная на высоте 2 м над землей.
Td - Температура точки росы - температура, при понижении до которой содержащийся в воздухе водяной пар достигнет насыщения.
f - Относительная влажность воздуха - влажноcть воздуха, измеренная на высоте 2 м над землей.
Te - Эффективная температура - температура, которую ощущает одетый по сезону человек в тени. Характеристика душности погоды. При расчете учитывается влияние влажности воздуха и скорости ветра на теплоощущения человека.
Tes - Эффективная температура на солнце - температура, которую ощущает человек, с поправкой на солнечный нагрев. Характеристика знойности погоды. Зависит от высоты солнца над горизонтом, облачности и скорости ветра. Ночью, в пасмурную погоду, а также при ветре 12 м/с и более поправка равна нулю.
P - Атмосферное давление - приведенное к уровню моря атмосферное давление.
Po - Атмосферное давление - измеренное на уровне метеостанции атмосферное давление.
Tmin - Минимальная температура - минимум температуры воздуха на высоте 2 м над землей.
Tmax - Максимальная температура - максимум температуры воздуха на высоте 2 м над землей.
R - Количество осадков - Количество выпавших осадков за период времени, мм. При наведении курсора мыши на число - период времени, за который выпало указанное количество осадков.
R24 - Количество осадков - Количество выпавших осадков за 24 часа, мм.
S - Снежный покров - Высота снежного покрова, см. При наведении курсора мыши на число - состояние снежного покрова и степень покрытия местности в баллах.